#timestamp,LO_Frequency,Hit,StdDev 
1582689615.8,286046998.1,N
1582689635.6,286047001.2,N
1582689655.5,286047001.2,N
1582689675.3,286046999.4,N
1582689695.1,286046999.5,N
1582689715.9,286046998.7,N
1582689735.7,286047002.5,N
1582689755.5,286047001.8,N
1582689775.4,286047001.8,N
1582689795.2,286047001.7,N
1582689815.1,286047003.8,Y
1582689816.0,286047003.8,P
1582689835.8,286047001.6,N
1582689855.6,286047002.1,N
1582689875.5,286047003.2,N
1582689895.3,286047002.2,N
1582689915.2,286046999.8,N
1582689935.9,286046999.9,N
1582689955.7,286047000.0,N
1582689975.6,286046998.2,N
1582689995.4,286047000.9,N
1582690015.2,286047001.3,N
1582690035.1,286047002.4,N
1582690036.0,286047002.4,N
1582690055.8,286047002.2,N
1582690075.7,286047001.5,N
1582690095.5,286047001.5,N
1582690115.3,286047001.6,N
1582690135.2,286047002.7,N
1582690155.0,286047002.8,N
1582690155.9,286047002.8,N
1582690175.8,286047002.7,N
1582690195.6,286046999.8,N
1582690215.4,286046999.9,N
1582690235.3,286047000.4,N
1582690255.1,286047000.0,N
1582690275.8,286047000.7,N
1582690295.7,286047000.6,N
1582690315.5,286047000.0,N
1582690335.4,286047000.1,N
1582690355.2,286047000.3,N
1582690375.0,286047000.4,N
1582690375.9,286047000.4,N
1582690395.8,286047000.9,N
1582690415.6,286046999.0,N
1582690435.4,286046999.3,N
1582690455.3,286046999.2,N
1582690475.1,286046999.0,N
1582690495.9,286046998.7,N
1582690515.7,286047000.8,N
1582690535.5,286047001.1,N
1582690555.4,286047000.3,N
1582690575.2,286047000.9,N
1582690595.1,286047000.2,N
1582690596.0,286047000.2,N
1582690615.8,286047002.4,N
1582690635.6,286047002.0,N
1582690655.5,286047002.0,N
1582690675.3,286047002.0,N
1582690695.1,286047002.4,N
1582690715.9,286047001.3,N
1582690735.7,286047004.3,Y
1582690755.6,286047002.5,P
1582690775.4,286047002.2,N
1582690795.2,286047002.4,N
1582690815.1,286046999.9,N
1582690816.0,286046999.9,N
1582690835.8,286046999.8,N
1582690855.7,286047000.7,N
1582690875.5,286047002.8,N
1582690895.3,286047002.4,N
1582690915.2,286047002.8,N
1582690935.0,286047000.1,N
1582690935.9,286047000.1,N
1582690955.7,286046999.9,N
1582690975.6,286047000.3,N
1582690995.4,286047000.8,N
1582691015.3,286047000.8,N
1582691035.1,286046998.9,N
1582691036.0,286046998.9,N
1582691055.8,286046998.7,N
1582691075.7,286046999.5,N
1582691095.5,286046999.2,N
1582691115.4,286046999.5,N
1582691135.2,286046999.2,N
1582691155.0,286046995.0,Y
1582691155.9,286046995.0,P
1582691175.8,286046997.9,N
1582691195.6,286046999.5,N
1582691215.4,286046998.1,N
1582691235.3,286047001.1,N
1582691255.1,286046996.6,N
1582691275.9,286046996.6,N
1582691295.7,286046996.7,N
1582691315.5,286046998.8,N
1582691335.4,286046999.2,N
1582691355.2,286046999.6,N
1582691375.1,286046997.9,N
1582691376.0,286046997.9,N
1582691395.8,286046995.8,N
1582691415.6,286046995.1,N
1582691435.5,286046997.6,N
1582691455.3,286046996.1,N
1582691475.2,286046995.3,N
1582691495.9,286046997.4,N
1582691515.7,286046997.0,N
1582691535.6,286046999.2,N
1582691555.4,286046998.8,N
1582691575.2,286046999.2,N
1582691595.1,286047001.2,N
1582691596.0,286047001.2,N
1582691615.8,286046998.5,N
1582691635.7,286046997.2,N
1582691655.5,286046995.6,N
1582691675.3,286046997.9,N
1582691695.2,286046995.4,N
1582691715.0,286046995.9,N
1582691715.9,286046995.9,N
1582691735.7,286046995.0,N
1582691755.6,286046997.8,N
1582691775.4,286046997.7,N
1582691795.3,286046999.1,N
1582691815.1,286046996.9,N
1582691816.0,286046996.9,N
1582691835.8,286046997.5,N
1582691855.7,286046997.9,N
1582691875.5,286046995.4,N
1582691895.3,286046995.5,N
1582691915.2,286046995.3,N
1582691935.0,286046995.5,N
1582691935.9,286046995.5,N
1582691955.8,286046994.9,Y
1582691975.6,286046998.9,P
1582691995.4,286046999.4,N
1582692015.3,286046999.4,N
1582692035.1,286046998.8,N
1582692055.9,286047000.4,N
1582692075.7,286046999.9,N
1582692095.5,286047000.5,N
1582692115.4,286047001.0,N
1582692135.2,286046999.3,N
1582692155.0,286047000.7,N
1582692156.0,286047000.7,N
1582692175.8,286047000.0,N
1582692195.6,286046998.5,N
1582692215.5,286047002.7,N
1582692235.3,286047002.4,N
1582692255.1,286047001.6,N
1582692275.9,286046999.7,N
1582692295.7,286047000.1,N
1582692315.6,286047002.6,N
1582692335.4,286047001.5,N
1582692355.2,286047001.7,N
1582692375.1,286047004.2,Y
1582692376.0,286047004.2,P
1582692395.8,286047001.3,N
1582692415.6,286047001.6,N
1582692435.5,286047004.4,Y
1582692455.3,286047000.9,P
1582692475.2,286046998.9,N
1582692495.9,286046998.2,N
1582692515.7,286046999.4,N
1582692535.6,286046998.8,N
1582692555.4,286046999.5,N
1582692575.3,286046998.7,N
1582692595.1,286046998.2,N
1582692596.0,286046998.2,N
1582692615.8,286047000.8,N
1582692635.7,286047000.4,N
1582692655.5,286047001.0,N
1582692675.3,286047000.4,N
1582692695.2,286047000.6,N
1582692715.0,286047002.5,N
1582692715.9,286047002.5,N
1582692735.8,286046999.7,N
1582692755.6,286046999.7,N
1582692775.4,286047002.3,N
1582692795.3,286047000.8,N
1582692815.1,286047000.6,N
1582692835.9,286047000.6,N
1582692855.7,286046998.4,N
1582692875.5,286046999.0,N
1582692895.4,286046998.7,N
1582692915.2,286046998.8,N
1582692935.0,286046999.3,N
1582692935.9,286046999.3,N
1582692955.8,286046999.2,N
1582692975.6,286046998.8,N
1582692995.5,286046999.5,N
1582693015.3,286046996.9,N
1582693035.1,286046996.9,N
1582693055.9,286046999.0,N
1582693075.7,286046998.9,N
1582693095.5,286047001.1,N
1582693115.4,286047000.4,N
1582693135.2,286047002.3,N
1582693155.1,286047002.2,N
1582693156.0,286047002.2,N
1582693175.8,286047000.2,N
1582693195.6,286047002.8,N
